Hourly Weather Roundup
Issued by NWS Central Illinois

Home | Current Version | Previous Version | Graphics & Text | Print | Product List | Glossary On
Versions: 1 2 3 4 5 6 7 8 9 10 11 12 13 14 15 16 17 18 19 20 21 22 23 24 25 26 27 28 29 30 31 32 33 34 35 36 37 38 39 40 41 42 43 44 45 46 47 48 49 50
000
NZUS43 KILX 032210
HWRILX

AREA WEATHER ROUNDUP
NATIONAL WEATHER SERVICE, LINCOLN IL
400 PM CST SAT DEC 03 2016


CITY           SKY/WX    TMP DP  RH WIND       PRES   REMARKS
BLOOMINGTON    CLOUDY    35  27  72 NE7       30.31F WCI  29
CHAMPAIGN      PTCLDY    37  28  70 CALM      30.32S
DANVILLE       CLOUDY    35  27  75 NW8       30.29F WCI  28
DECATUR        MOCLDY    38  30  73 E5        30.32S WCI  34
EFFINGHAM      CLOUDY    41  33  73 CALM      30.32F
FLORA          CLOUDY    43  34  71 SE3       30.31F
GALESBURG      CLEAR     35  28  74 CALM      30.30F
JACKSONVILLE   CLOUDY    40  33  75 E8        30.29F WCI  35
LACON          MOCLDY    35  26  71 N3        30.32F
LAWRENCEVILLE  CLOUDY    42  31  64 NE6       30.32F
LITCHFIELD     CLOUDY    40  33  76 E6        30.28F
$$


CITY           SKY/WX    TMP DP  RH WIND       PRES   REMARKS
LINCOLN        PTCLDY    38  31  74 CALM      30.32S
MACOMB         CLOUDY    38  31  76 E7        30.31F WCI  33
MATTOON        CLOUDY    38  30  73 NE7       30.31F WCI  33
MT CARMEL AP   CLOUDY    42  31  65 NE5       30.31F
OLNEY-NOBLE AP CLOUDY    41  34  75 NE5       30.31F
PARIS          MOCLDY    37  30  78 N3        30.33S
PEORIA         MOCLDY    36  27  69 E8        30.32F WCI  30
PONTIAC        CLOUDY    34  28  77 N3        30.34F
RANTOUL        CLOUDY    37  29  75 N8        30.32F WCI  30
SPRINGFIELD    CLOUDY    40  31  70 E7        30.31S
TAYLORVILLE    HAZE      39  32  76 E5        30.30F VSB 1/2
$$

...REGIONAL REPORTS...


CITY           SKY/WX    TMP DP  RH WIND       PRES   REMARKS
CHICAGO O`HARE MOCLDY    33  23  66 W6        30.32F WCI  28
KANKAKEE       CLOUDY    33  26  76 NW3       30.34F
MOLINE         MOCLDY    38  25  59 CALM      30.30F
MOUNT STERLING PTCLDY    39  32  77 E8        30.27F WCI  33
MOUNT VERNON   NOT AVBL
PITTSFIELD     PTCLDY    42  33  72 E6        30.28F
QUINCY         CLOUDY    41  33  73 E9        30.25F
ROCKFORD       CLOUDY    36  25  64 W3        30.33F
$$


CITY           SKY/WX    TMP DP  RH WIND       PRES   REMARKS
BURLINGTON     CLOUDY    38  30  73 E7        30.28F WCI  33
CEDAR RAPIDS   CLOUDY    37  30  75 S7        30.26F WCI  32
DES MOINES     LGT RAIN  41  31  67 S7        30.24S
KIRKSVILLE     CLOUDY    43  33  68 E8        30.22F
OTTUMWA        CLOUDY    41  30  65 SE7       30.24F
ST LOUIS       CLOUDY    44  30  57 SE8       30.29S
$$


CITY           SKY/WX    TMP DP  RH WIND       PRES   REMARKS
TERRE HAUTE    CLOUDY    38  28  67 N6        30.33S WCI  33
EVANSVILLE     CLOUDY    44  30  57 NE5       30.30F
INDIANAPOLIS   CLOUDY    37  28  70 N7        30.31S WCI  32
LAFAYETTE      CLOUDY    34  27  75 CALM      30.32F
MADISON        CLOUDY    33  23  66 CALM      30.29S
MILWAUKEE      CLOUDY    33  21  61 W7        30.32R WCI  27
$$





USA.gov is the U.S. government's official web portal to all federal, state and local government web resources and services.